QPF
0.00 0.00 0.00 0.01 0.01 0.03 0.02 0.00 0.00 0.00 0.00 0.00 0.00 0.00 0.00 0.00 0.00 0.00 0.00 0.00 0.00 0.00 0.00 0.00 0.00 0.01 0.01 0.01 0.01 0.00 0.00 0.00 0.00 0.00 0.00 0.00 0.00 0.01 0.00 0.00 0.00 0.00 0.00
0.00 0.00 0.00 0.01 0.02 0.02 0.01 0.00 0.00 0.00 0.00 0.00 0.00 0.00 0.00 0.00 0.00 0.00 0.00 0.01 0.00 0.00 0.00 0.00 0.00 0.00 0.00 0.00 0.00 0.00 0.00 0.00 0.00 0.00 0.00 0.00 0.00 0.00 0.00 0.00 0.01 0.01 0.02
0.00 0.00 0.00 0.01 0.02 0.02 0.01 0.00 0.00 0.00 0.00 0.00 0.00 0.00 0.01 0.00 0.00 0.00 0.00 0.00 0.00 0.00 0.00 0.00 0.00 0.00 0.00 0.00 0.00 0.00 0.00 0.00 0.00 0.00 0.00 0.00 0.00 0.00 0.00 0.00 0.01 0.01 0.01
0.00 0.00 0.00 0.01 0.02 0.02 0.01 0.00 0.00 0.00 0.00 0.00 0.00 0.01 0.02 0.00 0.00 0.00 0.00 0.00 0.00 0.00 0.00 0.00 0.00 0.00 0.00 0.00 0.00 0.00 0.00 0.00 0.00 0.00 0.00 0.00 0.00 0.00 0.00 0.00 0.00 0.01 0.00
0.00 0.00 0.00 0.01 0.02 0.01 0.00 0.00 0.00 0.00 0.00 0.00 0.00 0.02 0.03 0.01 0.00 0.00 0.00 0.00 0.00 0.00 0.00 0.00 0.00 0.00 0.00 0.00 0.00 0.00 0.00 0.00 0.00 0.00 0.00 0.00 0.00 0.00 0.00 0.00 0.00 0.00 0.00
0.00 0.00 0.00 0.00 0.01 0.00 0.00 0.00 0.00 0.00 0.00 0.00 0.00 0.01 0.03 0.01 0.00 0.00 0.00 0.00 0.00 0.00 0.00 0.00 0.00 0.00 0.00 0.00 0.00 0.00 0.00 0.00 0.00 0.00 0.00 0.00 0.00 0.00 0.00 0.00 0.00 0.00 0.00
0.00 0.00 0.00 0.00 0.00 0.00 0.00 0.00 0.00 0.00 0.00 0.00 0.00 0.01 0.02 0.01 0.00 0.00 0.00 0.00 0.00 0.00 0.00 0.00 0.00 0.00 0.00 0.00 0.00 0.00 0.00 0.00 0.00 0.00 0.00 0.00 0.00 0.00 0.00 0.00 0.00 0.00 0.00
0.00 0.00 0.00 0.00 0.00 0.00 0.00 0.00 0.00 0.00 0.00 0.00 0.00 0.00 0.01 0.01 0.01 0.00 0.00 0.00 0.00 0.00 0.00 0.00 0.00 0.00 0.00 0.00 0.00 0.00 0.00 0.00 0.00 0.00 0.00 0.00 0.00 0.00 0.00 0.00 0.00 0.00 0.00
0.00 0.00 0.00 0.00 0.00 0.00 0.00 0.00 0.00 0.00 0.00 0.00 0.00 0.00 0.00 0.00 0.00 0.00 0.00 0.00 0.00 0.00 0.00 0.00 0.00 0.00 0.00 0.00 0.00 0.00 0.00 0.00 0.00 0.00 0.00 0.00 0.00 0.00 0.00 0.00 0.00 0.00 0.00
0.00 0.00 0.00 0.00 0.00 0.00 0.00 0.00 0.00 0.00 0.00 0.00 0.00 0.00 0.00 0.00 0.00 0.00 0.00 0.00 0.00 0.00 0.00 0.00 0.00 0.00 0.00 0.00 0.00 0.00 0.00 0.00 0.00 0.00 0.00 0.00 0.00 0.00 0.00 0.00 0.00 0.00 0.00
0.00 0.00 0.00 0.00 0.00 0.00 0.00 0.00 0.00 0.00 0.00 0.00 0.00 0.00 0.00 0.00 0.00 0.00 0.00 0.00 0.00 0.00 0.00 0.00 0.00 0.00 0.00 0.00 0.00 0.00 0.00 0.00 0.00 0.00 0.00 0.00 0.00 0.00 0.00 0.00 0.00 0.00 0.00
0.00 0.00 0.00 0.00 0.00 0.00 0.00 0.00 0.00 0.00 0.00 0.00 0.00 0.00 0.00 0.00 0.00 0.00 0.00 0.00 0.00 0.00 0.00 0.00 0.00 0.00 0.00 0.00 0.00 0.00 0.00 0.00 0.00 0.00 0.00 0.00 0.00 0.00 0.00 0.00 0.00 0.00 0.00
0.00 0.00 0.00 0.00 0.00 0.00 0.00 0.00 0.00 0.00 0.00 0.00 0.00 0.00 0.00 0.00 0.00 0.00 0.00 0.00 0.00 0.00 0.00 0.00 0.00 0.00 0.00 0.00 0.00 0.00 0.00 0.00 0.00 0.00 0.00 0.00 0.00 0.00 0.00 0.00 0.00 0.00 0.00
0.00 0.00 0.00 0.00 0.00 0.00 0.00 0.00 0.00 0.00 0.00 0.00 0.00 0.00 0.00 0.00 0.00 0.00 0.00 0.00 0.00 0.00 0.00 0.00 0.00 0.00 0.00 0.00 0.00 0.00 0.00 0.00 0.00 0.00 0.00 0.00 0.00 0.00 0.00 0.00 0.00 0.00 0.00
0.00 0.00 0.00 0.00 0.00 0.00 0.00 0.00 0.00 0.00 0.00 0.00 0.00 0.00 0.00 0.00 0.00 0.00 0.00 0.00 0.00 0.00 0.00 0.00 0.00 0.00 0.00 0.00 0.00 0.00 0.00 0.00 0.00 0.00 0.00 0.00 0.00 0.00 0.00 0.00 0.00 0.00 0.00
0.00 0.00 0.00 0.00 0.00 0.00 0.00 0.00 0.00 0.00 0.00 0.00 0.00 0.00 0.00 0.00 0.00 0.00 0.00 0.00 0.00 0.00 0.00 0.00 0.00 0.00 0.00 0.00 0.00 0.00 0.00 0.00 0.00 0.00 0.00 0.00 0.00 0.00 0.00 0.00 0.00 0.00 0.00
0.00 0.00 0.00 0.00 0.00 0.00 0.00 0.00 0.00 0.00 0.00 0.00 0.00 0.00 0.00 0.00 0.00 0.00 0.00 0.00 0.00 0.00 0.00 0.00 0.00 0.00 0.00 0.00 0.00 0.00 0.00 0.00 0.00 0.00 0.00 0.00 0.00 0.00 0.00 0.00 0.00 0.00 0.00
0.00 0.00 0.00 0.00 0.00 0.00 0.00 0.00 0.00 0.00 0.00 0.00 0.00 0.00 0.00 0.00 0.00 0.00 0.00 0.00 0.00 0.00 0.00 0.00 0.00 0.00 0.00 0.00 0.00 0.00 0.00 0.00 0.00 0.00 0.00 0.00 0.00 0.00 0.00 0.00 0.00 0.00 0.00
0.00 0.00 0.00 0.00 0.00 0.00 0.00 0.00 0.00 0.00 0.00 0.00 0.00 0.00 0.00 0.00 0.00 0.00 0.00 0.00 0.00 0.00 0.00 0.00 0.00 0.00 0.00 0.00 0.00 0.00 0.00 0.00 0.00 0.00 0.00 0.00 0.00 0.00 0.00 0.00 0.00 0.00 0.00
0.00 0.00 0.00 0.00 0.00 0.00 0.00 0.00 0.00 0.00 0.00 0.00 0.00 0.00 0.00 0.00 0.00 0.00 0.00 0.00 0.00 0.00 0.00 0.00 0.00 0.00 0.00 0.00 0.00 0.00 0.00 0.00 0.00 0.00 0.00 0.00 0.00 0.00 0.00 0.00 0.00 0.00 0.00
0.00 0.00 0.00 0.00 0.00 0.00 0.00 0.00 0.00 0.00 0.00 0.00 0.00 0.00 0.00 0.00 0.00 0.00 0.00 0.00 0.00 0.00 0.00 0.00 0.00 0.00 0.00 0.00 0.00 0.00 0.00 0.00 0.00 0.00 0.00 0.00 0.00 0.00 0.00 0.00 0.00 0.00 0.00
0.00 0.00 0.00 0.00 0.00 0.00 0.00 0.00 0.00 0.00 0.00 0.00 0.00 0.00 0.00 0.00 0.00 0.00 0.00 0.00 0.00 0.00 0.00 0.00 0.00 0.00 0.00 0.00 0.01 0.01 0.01 0.00 0.00 0.00 0.00 0.00 0.00 0.00 0.00 0.00 0.00 0.00 0.00
0.00 0.00 0.00 0.00 0.00 0.00 0.00 0.00 0.00 0.00 0.00 0.00 0.00 0.00 0.00 0.00 0.00 0.00 0.00 0.00 0.00 0.00 0.00 0.00 0.00 0.00 0.01 0.01 0.01 0.02 0.03 0.02 0.01 0.00 0.00 0.00 0.00 0.00 0.00 0.00 0.00 0.00 0.00
0.00 0.00 0.00 0.00 0.00 0.00 0.00 0.00 0.00 0.00 0.00 0.00 0.00 0.00 0.00 0.00 0.00 0.00 0.00 0.00 0.00 0.00 0.00 0.00 0.00 0.01 0.02 0.02 0.01 0.02 0.04 0.05 0.05 0.04 0.01 0.00 0.00 0.00 0.00 0.00 0.00 0.00 0.00
0.00 0.00 0.00 0.00 0.00 0.00 0.00 0.00 0.00 0.00 0.00 0.00 0.00 0.00 0.00 0.00 0.00 0.00 0.00 0.00 0.00 0.00 0.00 0.00 0.01 0.01 0.02 0.03 0.03 0.04 0.05 0.05 0.06 0.08 0.05 0.02 0.01 0.00 0.00 0.00 0.00 0.00 0.00
0.00 0.00 0.00 0.00 0.00 0.00 0.00 0.00 0.00 0.00 0.00 0.00 0.00 0.00 0.00 0.00 0.00 0.00 0.00 0.00 0.00 0.00 0.00 0.00 0.00 0.01 0.01 0.03 0.04 0.06 0.07 0.07 0.07 0.07 0.06 0.04 0.03 0.01 0.00 0.00 0.00 0.00 0.00
MSLP
1011.83 1011.56 1011.41 1011.43 1011.59 1011.85 1012.16 1012.47 1012.71 1012.87 1012.94 1012.96 1012.97 1013.01 1013.10 1013.25 1013.46 1013.67 1013.87 1014.01 1014.08 1014.08 1014.04 1013.98 1013.94 1013.93 1013.97 1014.06 1014.17 1014.28 1014.39 1014.47 1014.51 1014.52 1014.51 1014.49 1014.45 1014.40 1014.36 1014.30 1014.25 1014.19 1014.15
1011.73 1011.49 1011.36 1011.37 1011.53 1011.79 1012.10 1012.41 1012.66 1012.83 1012.93 1012.98 1013.02 1013.09 1013.21 1013.39 1013.61 1013.84 1014.04 1014.19 1014.26 1014.27 1014.24 1014.18 1014.12 1014.09 1014.10 1014.15 1014.22 1014.31 1014.39 1014.46 1014.51 1014.53 1014.54 1014.53 1014.51 1014.47 1014.41 1014.35 1014.29 1014.24 1014.20
1011.48 1011.28 1011.19 1011.23 1011.41 1011.69 1012.03 1012.35 1012.63 1012.83 1012.96 1013.03 1013.10 1013.18 1013.32 1013.50 1013.71 1013.94 1014.14 1014.29 1014.37 1014.40 1014.37 1014.32 1014.27 1014.23 1014.22 1014.24 1014.28 1014.33 1014.40 1014.47 1014.52 1014.57 1014.60 1014.60 1014.58 1014.54 1014.47 1014.40 1014.33 1014.28 1014.25
1011.13 1010.99 1010.95 1011.05 1011.28 1011.60 1011.97 1012.33 1012.63 1012.86 1013.00 1013.09 1013.16 1013.25 1013.37 1013.53 1013.73 1013.94 1014.13 1014.28 1014.38 1014.43 1014.43 1014.40 1014.36 1014.33 1014.31 1014.31 1014.33 1014.37 1014.43 1014.50 1014.56 1014.62 1014.67 1014.68 1014.66 1014.60 1014.52 1014.43 1014.35 1014.29 1014.26
1010.77 1010.71 1010.74 1010.91 1011.19 1011.55 1011.95 1012.32 1012.64 1012.87 1013.02 1013.11 1013.17 1013.24 1013.34 1013.48 1013.65 1013.84 1014.02 1014.17 1014.29 1014.37 1014.40 1014.41 1014.39 1014.38 1014.36 1014.36 1014.38 1014.41 1014.47 1014.54 1014.62 1014.69 1014.73 1014.75 1014.71 1014.64 1014.53 1014.42 1014.32 1014.25 1014.23
1010.50 1010.51 1010.63 1010.86 1011.18 1011.57 1011.98 1012.35 1012.65 1012.86 1012.99 1013.06 1013.11 1013.16 1013.24 1013.35 1013.50 1013.67 1013.84 1014.00 1014.14 1014.24 1014.30 1014.34 1014.36 1014.37 1014.37 1014.38 1014.40 1014.44 1014.49 1014.57 1014.65 1014.73 1014.77 1014.77 1014.72 1014.62 1014.49 1014.35 1014.23 1014.15 1014.14
1010.38 1010.47 1010.66 1010.94 1011.29 1011.68 1012.06 1012.39 1012.64 1012.81 1012.91 1012.95 1012.98 1013.01 1013.08 1013.18 1013.32 1013.48 1013.66 1013.82 1013.96 1014.08 1014.18 1014.25 1014.29 1014.32 1014.34 1014.35 1014.38 1014.43 1014.49 1014.57 1014.65 1014.72 1014.76 1014.74 1014.67 1014.54 1014.38 1014.22 1014.08 1014.00 1013.99
1010.45 1010.61 1010.85 1011.16 1011.51 1011.86 1012.18 1012.44 1012.63 1012.73 1012.78 1012.80 1012.82 1012.86 1012.93 1013.04 1013.19 1013.35 1013.52 1013.68 1013.83 1013.95 1014.06 1014.14 1014.20 1014.24 1014.27 1014.30 1014.33 1014.38 1014.44 1014.52 1014.59 1014.65 1014.68 1014.64 1014.55 1014.40 1014.22 1014.03 1013.89 1013.80 1013.80
1010.66 1010.87 1011.14 1011.45 1011.77 1012.07 1012.32 1012.49 1012.60 1012.65 1012.66 1012.66 1012.69 1012.75 1012.85 1012.98 1013.14 1013.31 1013.48 1013.63 1013.76 1013.87 1013.97 1014.04 1014.10 1014.15 1014.18 1014.21 1014.24 1014.29 1014.35 1014.41 1014.48 1014.52 1014.52 1014.47 1014.36 1014.19 1014.00 1013.81 1013.66 1013.57 1013.57
1010.92 1011.16 1011.44 1011.73 1012.01 1012.25 1012.42 1012.52 1012.56 1012.56 1012.56 1012.57 1012.62 1012.72 1012.86 1013.03 1013.21 1013.38 1013.53 1013.66 1013.77 1013.85 1013.92 1013.97 1014.02 1014.05 1014.08 1014.10 1014.13 1014.17 1014.22 1014.27 1014.31 1014.34 1014.32 1014.24 1014.11 1013.94 1013.73 1013.54 1013.39 1013.31 1013.31
1011.13 1011.37 1011.65 1011.92 1012.16 1012.33 1012.44 1012.49 1012.49 1012.48 1012.48 1012.53 1012.62 1012.77 1012.96 1013.16 1013.36 1013.52 1013.65 1013.75 1013.81 1013.86 1013.89 1013.91 1013.93 1013.95 1013.97 1013.98 1014.00 1014.03 1014.05 1014.08 1014.10 1014.10 1014.05 1013.96 1013.82 1013.63 1013.43 1013.23 1013.08 1012.99 1012.99
1011.21 1011.43 1011.68 1011.93 1012.13 1012.27 1012.35 1012.37 1012.37 1012.38 1012.42 1012.52 1012.67 1012.87 1013.10 1013.32 1013.52 1013.67 1013.77 1013.83 1013.84 1013.84 1013.84 1013.83 1013.83 1013.83 1013.84 1013.84 1013.85 1013.85 1013.85 1013.85 1013.84 1013.80 1013.73 1013.62 1013.46 1013.27 1013.06 1012.86 1012.70 1012.60 1012.58
1011.10 1011.29 1011.51 1011.72 1011.90 1012.02 1012.10 1012.15 1012.18 1012.24 1012.34 1012.50 1012.71 1012.95 1013.21 1013.44 1013.62 1013.75 1013.81 1013.82 1013.80 1013.76 1013.72 1013.70 1013.68 1013.67 1013.67 1013.66 1013.65 1013.62 1013.59 1013.55 1013.50 1013.42 1013.32 1013.19 1013.01 1012.81 1012.59 1012.39 1012.21 1012.10 1012.05
1010.83 1010.97 1011.14 1011.32 1011.48 1011.61 1011.71 1011.80 1011.90 1012.03 1012.20 1012.42 1012.68 1012.95 1013.21 1013.43 1013.59 1013.67 1013.70 1013.67 1013.62 1013.56 1013.51 1013.48 1013.46 1013.44 1013.43 1013.40 1013.36 1013.30 1013.23 1013.14 1013.04 1012.93 1012.79 1012.63 1012.44 1012.23 1012.00 1011.78 1011.59 1011.44 1011.36
1010.49 1010.55 1010.65 1010.79 1010.92 1011.07 1011.21 1011.36 1011.54 1011.74 1011.98 1012.26 1012.54 1012.82 1013.06 1013.25 1013.37 1013.42 1013.41 1013.36 1013.30 1013.23 1013.19 1013.15 1013.13 1013.11 1013.09 1013.03 1012.95 1012.85 1012.73 1012.58 1012.43 1012.27 1012.10 1011.92 1011.71 1011.49 1011.26 1011.03 1010.82 1010.64 1010.51
1010.19 1010.15 1010.16 1010.23 1010.34 1010.48 1010.67 1010.88 1011.13 1011.40 1011.69 1012.00 1012.29 1012.54 1012.75 1012.90 1012.98 1012.99 1012.96 1012.91 1012.85 1012.80 1012.76 1012.74 1012.72 1012.69 1012.63 1012.54 1012.41 1012.24 1012.06 1011.85 1011.65 1011.44 1011.24 1011.03 1010.82 1010.59 1010.36 1010.12 1009.89 1009.68 1009.51
1010.02 1009.87 1009.78 1009.76 1009.83 1009.97 1010.17 1010.43 1010.73 1011.05 1011.38 1011.69 1011.96 1012.18 1012.34 1012.44 1012.48 1012.47 1012.43 1012.38 1012.34 1012.31 1012.28 1012.26 1012.23 1012.17 1012.07 1011.92 1011.72 1011.49 1011.23 1010.96 1010.70 1010.45 1010.21 1009.99 1009.77 1009.54 1009.32 1009.08 1008.85 1008.63 1008.43
1010.08 1009.80 1009.59 1009.49 1009.49 1009.61 1009.82 1010.10 1010.43 1010.78 1011.10 1011.40 1011.63 1011.80 1011.91 1011.96 1011.96 1011.94 1011.90 1011.87 1011.84 1011.83 1011.81 1011.78 1011.72 1011.61 1011.44 1011.22 1010.95 1010.63 1010.30 1009.96 1009.64 1009.34 1009.08 1008.84 1008.61 1008.40 1008.18 1007.96 1007.73 1007.51 1007.29
1010.36 1009.97 1009.65 1009.45 1009.39 1009.47 1009.67 1009.96 1010.30 1010.64 1010.95 1011.21 1011.39 1011.51 1011.56 1011.56 1011.54 1011.50 1011.47 1011.45 1011.44 1011.43 1011.40 1011.34 1011.23 1011.05 1010.81 1010.50 1010.14 1009.74 1009.33 1008.93 1008.55 1008.21 1007.91 1007.64 1007.41 1007.20 1006.99 1006.79 1006.58 1006.37 1006.16
1010.84 1010.35 1009.94 1009.67 1009.55 1009.59 1009.77 1010.05 1010.38 1010.71 1010.99 1011.20 1011.33 1011.38 1011.38 1011.34 1011.28 1011.24 1011.21 1011.19 1011.18 1011.16 1011.10 1010.99 1010.81 1010.56 1010.23 1009.83 1009.39 1008.91 1008.43 1007.96 1007.53 1007.14 1006.79 1006.49 1006.24 1006.01 1005.81 1005.62 1005.43 1005.24 1005.05
1011.44 1010.90 1010.43 1010.10 1009.94 1009.96 1010.13 1010.40 1010.71 1011.01 1011.25 1011.41 1011.48 1011.47 1011.41 1011.33 1011.25 1011.19 1011.15 1011.13 1011.10 1011.04 1010.93 1010.76 1010.50 1010.17 1009.75 1009.28 1008.76 1008.22 1007.68 1007.16 1006.66 1006.21 1005.81 1005.46 1005.16 1004.90 1004.67 1004.48 1004.30 1004.13 1003.96
1012.07 1011.52 1011.03 1010.69 1010.53 1010.54 1010.71 1010.97 1011.26 1011.53 1011.73 1011.84 1011.85 1011.78 1011.68 1011.56 1011.44 1011.36 1011.29 1011.24 1011.17 1011.06 1010.89 1010.65 1010.32 1009.90 1009.42 1008.89 1008.32 1007.74 1007.15 1006.58 1006.03 1005.51 1005.03 1004.59 1004.21 1003.88 1003.61 1003.38 1003.19 1003.03 1002.87
1012.67 1012.15 1011.70 1011.38 1011.24 1011.28 1011.45 1011.71 1011.99 1012.24 1012.40 1012.45 1012.41 1012.29 1012.13 1011.97 1011.82 1011.69 1011.59 1011.49 1011.37 1011.20 1010.96 1010.64 1010.24 1009.77 1009.25 1008.68 1008.09 1007.48 1006.87 1006.25 1005.64 1005.04 1004.47 1003.93 1003.44 1003.01 1002.65 1002.35 1002.13 1001.95 1001.79
1013.20 1012.76 1012.37 1012.12 1012.03 1012.10 1012.30 1012.57 1012.84 1013.06 1013.18 1013.18 1013.09 1012.92 1012.72 1012.51 1012.31 1012.14 1011.98 1011.82 1011.63 1011.39 1011.09 1010.71 1010.26 1009.75 1009.21 1008.63 1008.04 1007.43 1006.81 1006.17 1005.50 1004.82 1004.14 1003.47 1002.84 1002.28 1001.81 1001.42 1001.13 1000.90 1000.73
1013.68 1013.33 1013.04 1012.87 1012.84 1012.96 1013.18 1013.46 1013.72 1013.91 1013.99 1013.96 1013.82 1013.60 1013.35 1013.09 1012.85 1012.62 1012.41 1012.18 1011.92 1011.62 1011.25 1010.81 1010.33 1009.81 1009.26 1008.70 1008.13 1007.54 1006.92 1006.26 1005.54 1004.78 1003.99 1003.19 1002.43 1001.73 1001.12 1000.63 1000.24 999.94 999.72
1014.13 1013.89 1013.70 1013.61 1013.65 1013.81 1014.05 1014.32 1014.57 1014.73 1014.77 1014.70 1014.52 1014.26 1013.97 1013.66 1013.37 1013.09 1012.82 1012.53 1012.21 1011.83 1011.41 1010.93 1010.43 1009.90 1009.37 1008.83 1008.29 1007.73 1007.12 1006.45 1005.70 1004.87 1003.99 1003.08 1002.19 1001.36 1000.62 1000.00 999.51 999.13 998.82
Thickness
5764 5765 5764 5763 5760 5758 5755 5753 5750 5749 5747 5747 5747 5746 5745 5744 5743 5742 5740 5739 5738 5737 5737 5735 5735 5734 5733 5732 5729 5726 5724 5721 5718 5717 5716 5714 5714 5713 5710 5709 5709 5709 5707
5767 5764 5763 5761 5758 5756 5753 5750 5748 5746 5745 5745 5744 5743 5742 5741 5740 5739 5737 5737 5736 5735 5735 5733 5732 5732 5730 5728 5725 5723 5720 5717 5714 5712 5710 5709 5708 5708 5707 5706 5706 5704 5703
5766 5763 5761 5759 5756 5754 5752 5749 5746 5744 5742 5742 5742 5741 5740 5739 5738 5736 5735 5734 5734 5733 5731 5730 5730 5729 5727 5725 5723 5719 5716 5713 5711 5708 5706 5704 5703 5704 5703 5702 5701 5700 5699
5764 5761 5759 5756 5754 5752 5750 5748 5745 5743 5741 5740 5740 5739 5738 5737 5736 5734 5733 5732 5732 5730 5728 5727 5726 5726 5724 5722 5720 5716 5712 5710 5708 5705 5703 5701 5700 5699 5699 5698 5698 5697 5695
5763 5760 5757 5754 5753 5751 5748 5746 5744 5742 5739 5738 5738 5737 5736 5735 5734 5733 5732 5730 5729 5726 5725 5723 5722 5721 5720 5719 5717 5713 5710 5707 5705 5702 5701 5699 5698 5697 5697 5696 5696 5694 5691
5761 5758 5755 5751 5750 5749 5746 5743 5742 5740 5738 5737 5736 5736 5735 5734 5733 5732 5730 5728 5726 5724 5722 5720 5719 5718 5717 5715 5714 5712 5709 5706 5703 5701 5699 5698 5696 5696 5696 5695 5693 5691 5689
5758 5757 5753 5749 5748 5747 5744 5742 5740 5739 5737 5736 5735 5734 5734 5733 5732 5730 5727 5726 5724 5721 5719 5717 5716 5715 5713 5712 5711 5710 5708 5705 5701 5699 5698 5696 5695 5694 5695 5693 5691 5689 5686
5757 5755 5750 5747 5745 5744 5742 5740 5739 5737 5736 5734 5733 5732 5731 5730 5729 5727 5725 5723 5721 5719 5716 5715 5713 5712 5711 5710 5708 5707 5705 5702 5699 5697 5696 5694 5693 5692 5693 5691 5688 5686 5684
5753 5752 5748 5744 5742 5741 5739 5737 5736 5735 5734 5732 5730 5729 5728 5726 5725 5724 5722 5721 5719 5716 5714 5713 5711 5709 5708 5707 5705 5703 5701 5698 5696 5694 5692 5691 5690 5688 5688 5688 5685 5683 5680
5749 5748 5745 5741 5739 5737 5736 5734 5734 5733 5731 5730 5728 5726 5725 5723 5722 5720 5719 5718 5716 5713 5711 5710 5708 5706 5704 5703 5701 5699 5697 5694 5692 5689 5687 5686 5685 5684 5683 5683 5681 5678 5676
5746 5745 5743 5739 5736 5734 5733 5731 5731 5729 5727 5726 5724 5723 5721 5720 5718 5716 5715 5714 5711 5709 5708 5706 5704 5702 5700 5698 5697 5695 5693 5691 5688 5685 5682 5681 5680 5679 5679 5678 5676 5673 5671
5744 5743 5741 5737 5734 5732 5730 5728 5727 5725 5723 5722 5721 5719 5718 5716 5714 5712 5710 5708 5706 5704 5703 5701 5699 5697 5695 5693 5691 5689 5687 5685 5682 5680 5678 5675 5674 5674 5674 5673 5671 5669 5666
5743 5741 5740 5736 5733 5729 5726 5725 5723 5721 5719 5718 5717 5716 5714 5712 5710 5707 5705 5702 5701 5699 5697 5695 5692 5690 5689 5687 5685 5683 5681 5679 5677 5676 5674 5672 5670 5670 5670 5669 5668 5666 5663
5740 5739 5740 5737 5732 5728 5725 5723 5721 5719 5717 5715 5714 5713 5710 5707 5705 5702 5700 5698 5696 5694 5692 5690 5688 5686 5684 5682 5680 5678 5677 5675 5674 5673 5672 5670 5669 5667 5667 5666 5665 5663 5661
5739 5740 5740 5737 5733 5729 5725 5722 5720 5718 5716 5714 5712 5709 5706 5703 5700 5698 5696 5693 5691 5689 5687 5685 5683 5681 5679 5677 5675 5674 5672 5671 5671 5670 5669 5668 5666 5664 5662 5661 5660 5659 5657
5739 5740 5741 5738 5734 5731 5726 5723 5720 5718 5716 5712 5709 5706 5703 5699 5696 5693 5691 5688 5685 5683 5682 5680 5678 5676 5674 5672 5670 5668 5668 5667 5667 5667 5666 5665 5663 5661 5659 5658 5657 5656 5654
5735 5738 5740 5739 5735 5731 5727 5723 5720 5717 5714 5710 5706 5703 5699 5695 5691 5688 5685 5683 5680 5678 5675 5673 5671 5669 5668 5666 5666 5664 5664 5664 5664 5664 5662 5661 5660 5658 5656 5655 5654 5653 5651
5729 5733 5737 5739 5736 5731 5726 5722 5718 5714 5710 5706 5702 5698 5693 5689 5686 5683 5680 5679 5677 5674 5671 5668 5665 5663 5663 5662 5662 5662 5662 5661 5661 5659 5658 5657 5655 5654 5653 5652 5650 5649 5648
5721 5726 5730 5732 5732 5728 5723 5718 5713 5708 5704 5700 5695 5691 5687 5685 5682 5679 5677 5675 5673 5671 5667 5664 5662 5659 5660 5660 5660 5661 5660 5658 5657 5656 5655 5653 5651 5651 5650 5649 5648 5646 5645
5714 5717 5721 5724 5724 5722 5717 5711 5705 5700 5695 5692 5688 5685 5683 5681 5678 5675 5673 5671 5668 5665 5663 5660 5657 5655 5654 5654 5654 5655 5656 5656 5654 5653 5652 5650 5649 5648 5646 5645 5643 5642 5639
5706 5708 5711 5715 5714 5712 5707 5701 5695 5690 5687 5685 5682 5680 5677 5675 5673 5670 5667 5665 5662 5659 5658 5656 5652 5650 5649 5645 5642 5647 5651 5650 5649 5649 5647 5645 5644 5643 5640 5638 5636 5633 5632
5695 5699 5702 5703 5703 5701 5697 5692 5687 5682 5678 5674 5672 5670 5668 5666 5664 5661 5658 5655 5653 5651 5649 5646 5642 5641 5641 5635 5630 5632 5640 5646 5646 5645 5642 5639 5637 5635 5632 5630 5627 5625 5623
5686 5687 5690 5689 5689 5688 5686 5683 5678 5673 5668 5663 5660 5657 5656 5654 5652 5649 5646 5644 5642 5640 5637 5634 5631 5629 5629 5628 5622 5618 5622 5631 5633 5637 5635 5635 5632 5629 5626 5623 5620 5616 5613
5673 5674 5675 5674 5673 5672 5672 5670 5665 5659 5652 5647 5645 5645 5644 5643 5640 5637 5634 5631 5629 5626 5623 5621 5618 5616 5615 5615 5613 5610 5605 5606 5608 5619 5625 5623 5621 5618 5615 5613 5610 5607 5604
5663 5662 5662 5662 5660 5658 5658 5655 5651 5645 5640 5637 5636 5635 5633 5630 5628 5625 5622 5619 5616 5612 5609 5606 5604 5600 5597 5595 5593 5591 5590 5588 5585 5584 5597 5604 5602 5603 5601 5600 5598 5597 5595
5653 5652 5652 5651 5647 5645 5642 5639 5636 5631 5628 5626 5623 5621 5619 5616 5614 5610 5607 5602 5599 5595 5592 5589 5585 5582 5578 5575 5572 5569 5565 5563 5561 5556 5559 5572 5577 5583 5580 5581 5581 5582 5583